Weather History for KDUJ - November, 2011

Change the Weather History Date:

Wednesday, November 16, 2011

  Actual Average Record
Temperature  
Mean Temperature 42 °F 39 °F  
Max Temperature 51 °F 47 °F 63 °F (1988)
Min Temperature 33 °F 32 °F 8 °F (1967)
Degree Days  
Heating Degree Days 23 26  
Month to date heating degree days 281 371  
Since 1 July heating degree days 606 1114  
Cooling Degree Days 0 0  
Month to date cooling degree days 0 0  
Year to date cooling degree days 0 362  
Moisture  
Dew Point 46 °F    
Average Humidity 82    
Maximum Humidity 100    
Minimum Humidity 64    
Precipitation  
Precipitation 0.14 in 0.13 in 2.25 in (2006)
Month to date precipitation 1.57 1.91  
Sea Level Pressure  
Sea Level Pressure 29.85 in    
Wind  
Wind Speed 5 mph (SW)    
Max Wind Speed 13 mph    
Max Gust Speed 17 mph    
Visibility 6 miles    
Events Rain    
T = Trace of Precipitation, MM = Missing Value Source: NWS Daily Summary

Daily Weather History Graph

Daily Weather History Graph

Search for Another Location

Airport or City:

Trip Planner

Search our weather history database for the weather conditions in past years. The results will help you decide how hot, cold, wet, or windy it might be!

Date:

Astronomy

Nov. 16, 2011 Rise Set
Actual Time 7:04 AM EST 4:55 PM EST
Civil Twilight 6:34 AM EST 5:25 PM EST
Nautical Twilight 6:01 AM EST 5:58 PM EST
Astronomical Twilight 5:28 AM EST 6:31 PM EST
Moon 10:08 PM EST (11/16) 11:39 AM EST (11/16)
Length of Visible Light 10h 50m
Length of Day
9h 51m
Waning Gibbous, 70% of the Moon is Illuminated
Nov 16
Waning Gibbous
Nov 18
Last Quarter
Nov 25
New
Dec 2
First Quarter
Dec 10
Full

Hourly Weather History & Observations

Time (EST) Temp. Windchill Dew Point Humidity Pressure Visibility Wind Dir Wind Speed Gust Speed Precip Events Conditions
12:56 AM 48.9 °F - 48.9 °F 100% 29.91 in 5.0 mi Calm Calm - N/A   Overcast
1:56 AM 48.9 °F - 48.9 °F 100% 29.89 in 4.0 mi Calm Calm - N/A   Overcast
2:09 AM 48.2 °F - 48.2 °F 100% 29.88 in 3.0 mi Calm Calm - N/A   Overcast
2:20 AM 48.2 °F - 48.2 °F 100% 29.88 in 2.5 mi SSE 3.5 mph - N/A   Overcast
2:32 AM 48.2 °F - 48.2 °F 100% 29.88 in 3.0 mi South 3.5 mph - N/A   Overcast
2:56 AM 48.2 °F - 48.2 °F 100% 29.87 in 3.0 mi South 5.8 mph - N/A   Overcast
3:49 AM 48.2 °F - 48.2 °F 100% 29.84 in 2.0 mi SSE 3.5 mph - 0.00 in   Overcast
3:56 AM 48.9 °F - 48.9 °F 100% 29.84 in 2.5 mi Variable 3.5 mph - 0.00 in   Overcast
4:29 AM 48.2 °F - 48.2 °F 100% 29.84 in 3.0 mi South 5.8 mph - 0.01 in   Overcast
4:37 AM 48.2 °F - 48.2 °F 100% 29.84 in 2.5 mi South 5.8 mph - 0.01 in   Overcast
4:56 AM 48.9 °F - 48.9 °F 100% 29.85 in 2.0 mi South 4.6 mph - 0.01 in Rain Light Rain
5:21 AM 50.0 °F - 48.2 °F 94% 29.84 in 3.0 mi SSE 5.8 mph - 0.01 in   Overcast
5:34 AM 50.0 °F - 48.2 °F 94% 29.84 in 2.5 mi South 5.8 mph - 0.01 in   Overcast
5:46 AM 50.0 °F - 48.2 °F 94% 29.84 in 5.0 mi SSE 5.8 mph - 0.01 in   Overcast
5:56 AM 50.0 °F - 48.9 °F 96% 29.85 in 8.0 mi South 4.6 mph - 0.01 in   Overcast
6:56 AM 50.0 °F - 48.2 °F 94% 29.84 in 4.0 mi SSE 5.8 mph - N/A   Overcast
7:09 AM 50.0 °F - 48.2 °F 94% 29.82 in 2.0 mi SE 4.6 mph - N/A   Overcast
7:22 AM 50.0 °F - 48.2 °F 94% 29.82 in 4.0 mi SE 4.6 mph - N/A   Overcast
7:47 AM 50.0 °F - 50.0 °F 100% 29.82 in 1.8 mi SSE 5.8 mph - N/A   Overcast
7:56 AM 50.0 °F - 48.9 °F 96% 29.83 in 0.8 mi SSE 6.9 mph - N/A   Mist
8:44 AM 50.0 °F - 50.0 °F 100% 29.84 in 3.0 mi Variable 3.5 mph - N/A   Overcast
8:56 AM 50.0 °F - 50.0 °F 100% 29.84 in 6.0 mi South 3.5 mph - N/A   Overcast
9:56 AM 51.1 °F - 50.0 °F 96% 29.85 in 5.0 mi West 6.9 mph - N/A   Overcast
10:56 AM 51.1 °F - 50.0 °F 96% 29.84 in 9.0 mi West 3.5 mph - N/A   Overcast
11:06 AM 51.8 °F - 50.0 °F 94% 29.83 in 10.0 mi WSW 5.8 mph - N/A   Overcast
11:43 AM 51.8 °F - 48.2 °F 88% 29.82 in 9.0 mi West 4.6 mph - 0.00 in Rain Light Rain
11:56 AM 51.1 °F - 48.9 °F 92% 29.82 in 6.0 mi West 5.8 mph - 0.01 in Rain Light Rain
12:04 PM 51.8 °F - 50.0 °F 94% 29.81 in 6.0 mi NW 4.6 mph - 0.01 in Rain Light Rain
12:19 PM 50.0 °F - 46.4 °F 87% 29.81 in 10.0 mi WNW 8.1 mph - 0.01 in Rain Light Rain
12:29 PM 50.0 °F - 46.4 °F 87% 29.81 in 10.0 mi WNW 5.8 mph - 0.01 in Rain Light Rain
12:56 PM 48.9 °F - 46.9 °F 93% 29.82 in 7.0 mi WNW 5.8 mph - 0.03 in Rain Light Rain
1:40 PM 48.2 °F - 48.2 °F 100% 29.80 in 6.0 mi WNW 5.8 mph - 0.04 in Rain Light Rain
1:56 PM 48.9 °F - 46.9 °F 93% 29.81 in 8.0 mi NW 5.8 mph - 0.05 in Rain Light Rain
2:56 PM 48.0 °F - 46.9 °F 96% 29.81 in 9.0 mi WSW 3.5 mph - 0.02 in Rain Light Rain
3:56 PM 48.0 °F - 46.9 °F 96% 29.81 in 8.0 mi SW 4.6 mph - 0.01 in   Overcast
4:22 PM 46.4 °F 42.4 °F 46.4 °F 100% 29.82 in 10.0 mi WSW 8.1 mph - N/A   Overcast
4:56 PM 46.9 °F - 46.0 °F 97% 29.83 in 10.0 mi WSW 8.1 mph - 0.00 in   Overcast
5:11 PM 46.4 °F 42.4 °F 46.4 °F 100% 29.83 in 10.0 mi West 8.1 mph - N/A   Overcast
5:26 PM 46.4 °F 42.4 °F 46.4 °F 100% 29.84 in 8.0 mi West 8.1 mph - N/A   Overcast
5:56 PM 46.0 °F 42.5 °F 43.0 °F 89% 29.87 in 10.0 mi WNW 6.9 mph - N/A   Mostly Cloudy
6:56 PM 44.1 °F 40.1 °F 41.0 °F 89% 29.88 in 10.0 mi West 6.9 mph - N/A   Partly Cloudy
7:56 PM 41.0 °F 36.4 °F 36.0 °F 82% 29.89 in 10.0 mi WNW 6.9 mph - N/A   Mostly Cloudy
8:56 PM 37.9 °F 30.9 °F 28.9 °F 70% 29.92 in 10.0 mi NW 10.4 mph - N/A   Partly Cloudy
9:56 PM 37.4 °F 32.1 °F 26.6 °F 65% 29.90 in 10.0 mi NW 6.9 mph - N/A   Clear
10:56 PM 34.0 °F 28.8 °F 26.1 °F 73% 29.94 in 10.0 mi West 5.8 mph - N/A   Clear
11:56 PM 33.1 °F 28.7 °F 26.1 °F 75% 29.95 in 10.0 mi West 4.6 mph - N/A   Clear